When you browse on this site, cookies collect data to enhance your experience and personalize the content and advertising you see.
Visit our Privacy Policy to learn more. By continuing to use the site, you agree to this use of cookies and data.
  • In Hungary
  • List of Countries
  • For 7 days
  • Water Temperature
  • Weather Map
  • News
  • Weather Widgets
  • user-avatar
    Login

    Hourly Weather Zwickau

    Today, 13 December, Friday

    Time Temperature Precipitation Wind Pressure Humidity
    00:00 0°C° 0 mm 3 mps 721 mmHg 90%
    01:00 +1°C° 0 mm 2 mps 720 mmHg 90%
    02:00 0°C° 0 mm 3 mps 719 mmHg 88%
    03:00 -1°C° 0 mm 4 mps 718 mmHg 87%
    04:00 -1°C° 0 mm 4 mps 717 mmHg 85%
    05:00 -2°C° 0 mm 4 mps 716 mmHg 84%
    06:00 -2°C° 0 mm 4 mps 715 mmHg 82%
    07:00 -2°C° 0 mm 4 mps 714 mmHg 81%
    08:00 -1°C° 0 mm 4 mps 713 mmHg 79%
    09:00 -1°C° 0 mm 5 mps 712 mmHg 77%
    10:00 -1°C° 0 mm 5 mps 712 mmHg 76%
    11:00 0°C° 0 mm 5 mps 711 mmHg 73%
    12:00 +1°C° 0 mm 5 mps 711 mmHg 71%
    13:00 +2°C° 0 mm 5 mps 711 mmHg 68%
    14:00 +1°C° 0.1 mm 5 mps 711 mmHg 73%
    15:00 +1°C° 0.1 mm 5 mps 711 mmHg 78%
    16:00 0°C° 0.1 mm 5 mps 711 mmHg 83%
    17:00 +1°C° 0.1 mm 5 mps 711 mmHg 86%
    18:00 +1°C° 0.1 mm 5 mps 711 mmHg 88%
    19:00 +2°C° 0.1 mm 6 mps 712 mmHg 90%
    20:00 +2°C° 0 mm 5 mps 712 mmHg 90%
    21:00 +1°C° 0 mm 5 mps 712 mmHg 90%
    22:00 +1°C° 0 mm 5 mps 713 mmHg 91%
    23:00 +1°C° 0.2 mm 5 mps 713 mmHg 92%

    Tomorrow, 14 December, Saturday

    Time Temperature Precipitation Wind Pressure Humidity
    00:00 +1°C° 0.2 mm 6 mps 714 mmHg 94%
    01:00 +1°C° 0.2 mm 6 mps 715 mmHg 95%
    02:00 +1°C° 0.5 mm 6 mps 715 mmHg 93%
    03:00 +2°C° 0.5 mm 6 mps 716 mmHg 90%
    04:00 +2°C° 0.5 mm 7 mps 716 mmHg 87%
    05:00 +1°C° 0 mm 6 mps 717 mmHg 86%
    06:00 +1°C° 0 mm 6 mps 717 mmHg 85%
    07:00 +1°C° 0 mm 5 mps 717 mmHg 84%
    08:00 +1°C° 0.1 mm 6 mps 717 mmHg 84%
    09:00 0°C° 0.1 mm 7 mps 716 mmHg 83%
    10:00 +2°C° 0.1 mm 7 mps 716 mmHg 83%
    11:00 +2°C° 0.4 mm 9 mps 717 mmHg 83%
    12:00 +3°C° 0.4 mm 10 mps 717 mmHg 82%
    13:00 +4°C° 0.4 mm 11 mps 718 mmHg 82%
    14:00 +3°C° 0.1 mm 10 mps 719 mmHg 78%
    15:00 +2°C° 0.1 mm 9 mps 721 mmHg 73%
    16:00 +1°C° 0.1 mm 8 mps 722 mmHg 69%
    17:00 +2°C° 0 mm 7 mps 723 mmHg 75%
    18:00 +2°C° 0 mm 7 mps 724 mmHg 80%
    19:00 +2°C° 0 mm 7 mps 724 mmHg 86%
    20:00 +2°C° 0.1 mm 6 mps 725 mmHg 85%
    21:00 +3°C° 0.1 mm 6 mps 725 mmHg 84%
    22:00 +3°C° 0.1 mm 6 mps 726 mmHg 83%
    23:00 +3°C° 0 mm 5 mps 726 mmHg 84%

    Day after tomorrow, 15 December, Sunday

    Time Temperature Precipitation Wind Pressure Humidity
    00:00 +2°C° 0 mm 5 mps 726 mmHg 86%
    01:00 +2°C° 0 mm 5 mps 727 mmHg 87%
    02:00 +2°C° 0 mm 5 mps 727 mmHg 87%
    03:00 +3°C° 0 mm 5 mps 727 mmHg 86%
    04:00 +3°C° 0 mm 5 mps 726 mmHg 85%
    05:00 +5°C° 0.2 mm 5 mps 726 mmHg 85%
    06:00 +4°C° 0.2 mm 6 mps 725 mmHg 85%
    07:00 +5°C° 0.2 mm 6 mps 725 mmHg 85%
    08:00 +6°C° 0.3 mm 7 mps 725 mmHg 84%
    09:00 +7°C° 0.3 mm 8 mps 725 mmHg 83%
    10:00 +8°C° 0.3 mm 9 mps 726 mmHg 82%
    11:00 +7°C° 0.2 mm 8 mps 726 mmHg 81%
    12:00 +7°C° 0.2 mm 8 mps 727 mmHg 80%
    13:00 +6°C° 0.2 mm 7 mps 728 mmHg 79%
    14:00 +7°C° 0.1 mm 6 mps 729 mmHg 79%
    15:00 +5°C° 0.1 mm 6 mps 729 mmHg 80%
    16:00 +6°C° 0.1 mm 5 mps 730 mmHg 80%
    17:00 +6°C° 0 mm 5 mps 730 mmHg 80%
    18:00 +6°C° 0 mm 5 mps 731 mmHg 80%
    19:00 +5°C° 0 mm 5 mps 731 mmHg 79%
    20:00 +6°C° 0 mm 5 mps 732 mmHg 82%
    21:00 +6°C° 0 mm 5 mps 732 mmHg 84%
    22:00 +6°C° 0 mm 4 mps 732 mmHg 86%
    23:00 +6°C° 0 mm 4 mps 733 mmHg 87%

    16 December, Monday

    Time Temperature Precipitation Wind Pressure Humidity
    00:00 +6°C° 0 mm 4 mps 733 mmHg 88%
    01:00 +7°C° 0 mm 3 mps 733 mmHg 90%
    02:00 +7°C° 0 mm 3 mps 733 mmHg 90%
    03:00 +7°C° 0 mm 3 mps 733 mmHg 91%
    04:00 +5°C° 0 mm 3 mps 733 mmHg 91%
    05:00 +7°C° 0 mm 3 mps 733 mmHg 90%
    06:00 +7°C° 0 mm 3 mps 733 mmHg 90%
    07:00 +7°C° 0 mm 3 mps 733 mmHg 89%
    08:00 +7°C° 0 mm 3 mps 733 mmHg 86%
    09:00 +8°C° 0 mm 3 mps 733 mmHg 83%
    10:00 +7°C° 0 mm 4 mps 733 mmHg 80%
    11:00 +8°C° 0 mm 4 mps 733 mmHg 77%
    12:00 +9°C° 0 mm 3 mps 733 mmHg 74%
    13:00 +10°C° 0 mm 3 mps 732 mmHg 72%
    14:00 +10°C° 0 mm 3 mps 732 mmHg 73%
    15:00 +9°C° 0 mm 3 mps 732 mmHg 74%
    16:00 +8°C° 0 mm 3 mps 731 mmHg 75%
    17:00 +8°C° 0 mm 3 mps 731 mmHg 76%
    18:00 +7°C° 0 mm 4 mps 731 mmHg 76%
    19:00 +6°C° 0 mm 4 mps 731 mmHg 76%
    20:00 +7°C° 0 mm 3 mps 731 mmHg 77%
    21:00 +7°C° 0 mm 3 mps 731 mmHg 78%
    22:00 +7°C° 0 mm 3 mps 731 mmHg 78%
    23:00 +5°C° 0 mm 3 mps 731 mmHg 79%

    17 December, Tuesday

    Time Temperature Precipitation Wind Pressure Humidity
    00:00 +5°C° 0 mm 3 mps 730 mmHg 81%
    01:00 +4°C° 0 mm 3 mps 730 mmHg 82%
    02:00 +4°C° 0 mm 3 mps 730 mmHg 82%
    03:00 +4°C° 0 mm 3 mps 730 mmHg 82%
    04:00 +4°C° 0 mm 3 mps 730 mmHg 82%
    05:00 +4°C° 0 mm 3 mps 730 mmHg 81%
    06:00 +4°C° 0 mm 3 mps 730 mmHg 81%
    07:00 +4°C° 0 mm 3 mps 730 mmHg 81%
    08:00 +5°C° 0 mm 3 mps 731 mmHg 79%
    09:00 +5°C° 0 mm 3 mps 731 mmHg 77%
    10:00 +7°C° 0 mm 3 mps 731 mmHg 75%
    11:00 +8°C° 0 mm 3 mps 731 mmHg 72%
    12:00 +9°C° 0 mm 3 mps 731 mmHg 70%
    13:00 +10°C° 0 mm 3 mps 731 mmHg 67%
    14:00 +9°C° 0 mm 2 mps 731 mmHg 70%
    15:00 +9°C° 0 mm 2 mps 731 mmHg 72%
    16:00 +8°C° 0 mm 2 mps 731 mmHg 74%
    17:00 +8°C° 0 mm 2 mps 731 mmHg 73%
    18:00 +7°C° 0 mm 2 mps 731 mmHg 72%
    19:00 +7°C° 0 mm 2 mps 731 mmHg 71%
    20:00 +7°C° 0 mm 2 mps 731 mmHg 71%
    21:00 +7°C° 0 mm 2 mps 732 mmHg 72%
    22:00 +7°C° 0 mm 2 mps 732 mmHg 72%
    23:00 +7°C° 0 mm 2 mps 732 mmHg 73%

    18 December, Wednesday

    Time Temperature Precipitation Wind Pressure Humidity
    00:00 +7°C° 0 mm 2 mps 732 mmHg 74%
    01:00 +6°C° 0 mm 2 mps 732 mmHg 75%
    02:00 +6°C° 0 mm 2 mps 732 mmHg 76%
    03:00 +6°C° 0 mm 2 mps 732 mmHg 78%
    04:00 +6°C° 0 mm 2 mps 732 mmHg 79%
    05:00 +6°C° 0 mm 2 mps 732 mmHg 81%
    06:00 +6°C° 0 mm 2 mps 733 mmHg 83%
    07:00 +5°C° 0 mm 3 mps 733 mmHg 84%
    08:00 +6°C° 0 mm 2 mps 734 mmHg 84%
    09:00 +8°C° 0 mm 1 mps 734 mmHg 84%
    10:00 +8°C° 0 mm 1 mps 735 mmHg 84%
    11:00 +9°C° 0 mm 1 mps 735 mmHg 81%
    12:00 +10°C° 0 mm 1 mps 735 mmHg 79%
    13:00 +11°C° 0 mm 1 mps 735 mmHg 77%
    14:00 +10°C° 0 mm 1 mps 735 mmHg 81%
    15:00 +9°C° 0 mm 1 mps 735 mmHg 85%
    16:00 +8°C° 0 mm 1 mps 735 mmHg 89%
    17:00 +8°C° 0 mm 1 mps 735 mmHg 90%
    18:00 +7°C° 0 mm 1 mps 735 mmHg 91%
    19:00 +7°C° 0 mm 1 mps 735 mmHg 92%
    20:00 +7°C° 0 mm 1 mps 735 mmHg 94%
    21:00 +6°C° 0 mm 2 mps 735 mmHg 95%
    22:00 +5°C° 0 mm 2 mps 735 mmHg 96%
    23:00 +5°C° 0 mm 2 mps 735 mmHg 96%
    Show more